TimeEST,TemperatureF,Dew PointF,Humidity,Sea Level PressureIn,VisibilityMPH,Wind Direction,Wind SpeedMPH,Gust SpeedMPH,PrecipitationIn,Events,Conditions,WindDirDegrees,DateUTC
12:53 AM,41.0,30.0,65,30.03,10.0,North,8.1,-,N/A,,Clear,10,2014-02-23 05:53:00
1:53 AM,39.9,30.0,68,30.03,10.0,NNE,5.8,-,N/A,,Clear,20,2014-02-23 06:53:00
2:53 AM,37.9,28.9,70,30.04,10.0,North,3.5,-,N/A,,Clear,10,2014-02-23 07:53:00
3:53 AM,34.0,28.0,79,30.04,10.0,NW,4.6,-,N/A,,Partly Cloudy,320,2014-02-23 08:53:00
4:53 AM,35.1,28.9,78,30.04,10.0,NNW,3.5,-,N/A,,Partly Cloudy,340,2014-02-23 09:53:00
5:53 AM,34.0,28.0,79,30.03,10.0,Calm,Calm,-,N/A,,Mostly Cloudy,0,2014-02-23 10:53:00
6:53 AM,33.1,28.0,82,30.05,10.0,North,4.6,-,N/A,,Clear,350,2014-02-23 11:53:00
7:53 AM,35.1,30.0,82,30.05,10.0,North,3.5,-,N/A,,Clear,10,2014-02-23 12:53:00
8:53 AM,37.9,32.0,79,30.09,10.0,North,6.9,-,N/A,,Partly Cloudy,360,2014-02-23 13:53:00
9:53 AM,41.0,33.1,73,30.12,10.0,North,8.1,-,N/A,,Overcast,350,2014-02-23 14:53:00
10:53 AM,43.0,33.1,68,30.12,10.0,NNE,9.2,17.3,N/A,,Mostly Cloudy,20,2014-02-23 15:53:00
11:53 AM,41.0,33.1,73,30.12,10.0,North,13.8,-,N/A,,Overcast,10,2014-02-23 16:53:00
12:50 PM,42.8,33.8,70,30.12,10.0,NNW,8.1,16.1,N/A,,Mostly Cloudy,340,2014-02-23 17:50:00
12:53 PM,44.1,33.1,65,30.13,10.0,North,9.2,-,N/A,,Mostly Cloudy,350,2014-02-23 17:53:00
1:53 PM,41.0,33.1,73,30.12,10.0,NNE,11.5,18.4,0.00,Rain,Light Rain,20,2014-02-23 18:53:00
2:02 PM,41.0,33.8,76,30.10,10.0,North,6.9,-,0.00,Rain,Light Rain,10,2014-02-23 19:02:00
2:50 PM,39.2,33.8,81,30.13,10.0,NNW,10.4,-,0.00,,Overcast,340,2014-02-23 19:50:00
2:53 PM,39.0,33.1,79,30.14,10.0,NNW,10.4,-,0.00,,Overcast,330,2014-02-23 19:53:00
3:03 PM,37.4,33.8,87,30.12,10.0,NNW,11.5,-,N/A,,Overcast,340,2014-02-23 20:03:00
3:29 PM,35.6,32.0,87,30.14,2.5,North,10.4,19.6,0.01,Snow,Light Snow,350,2014-02-23 20:29:00
3:40 PM,35.6,33.8,93,30.15,2.5,North,8.1,-,0.01,Snow,Light Snow,350,2014-02-23 20:40:00
3:51 PM,35.6,32.0,87,30.15,2.0,North,10.4,-,0.01,Snow,Light Snow,350,2014-02-23 20:51:00
3:53 PM,35.1,32.0,89,30.16,2.0,North,9.2,-,0.01,Snow,Light Snow,360,2014-02-23 20:53:00
4:00 PM,33.8,32.0,93,30.14,1.5,North,5.8,-,0.01,Snow,Light Snow,360,2014-02-23 21:00:00
4:07 PM,33.8,32.0,93,30.14,1.0,North,8.1,-,0.01,Snow,Light Snow,360,2014-02-23 21:07:00
4:19 PM,33.8,30.2,87,30.14,0.5,North,6.9,-,0.02,Fog-Snow,Snow,360,2014-02-23 21:19:00
4:34 PM,33.8,32.0,93,30.14,1.0,North,4.6,-,0.03,Snow,Light Snow,350,2014-02-23 21:34:00
4:45 PM,33.8,32.0,93,30.15,3.0,Variable,3.5,-,0.03,Snow,Light Snow,0,2014-02-23 21:45:00
4:53 PM,34.0,32.0,92,30.17,6.0,North,4.6,-,0.03,Snow,Light Snow,350,2014-02-23 21:53:00
5:13 PM,33.8,30.2,87,30.15,10.0,North,3.5,-,0.00,,Overcast,10,2014-02-23 22:13:00
5:24 PM,33.8,30.2,87,30.15,10.0,Variable,4.6,-,0.00,,Overcast,0,2014-02-23 22:24:00
5:53 PM,35.1,30.0,82,30.17,10.0,North,5.8,-,0.00,,Overcast,350,2014-02-23 22:53:00
6:53 PM,34.0,30.0,85,30.19,10.0,NNW,5.8,-,N/A,,Mostly Cloudy,330,2014-02-23 23:53:00
7:53 PM,33.1,30.9,92,30.20,9.0,NNW,4.6,-,N/A,,Clear,330,2014-02-24 00:53:00
8:53 PM,32.0,21.9,66,30.21,10.0,North,6.9,-,N/A,,Clear,350,2014-02-24 01:53:00
9:53 PM,30.9,19.0,61,30.24,10.0,North,8.1,-,N/A,,Clear,350,2014-02-24 02:53:00
10:53 PM,28.9,17.1,61,30.25,10.0,North,5.8,-,N/A,,Clear,350,2014-02-24 03:53:00
11:53 PM,28.0,16.0,61,30.26,10.0,NNW,4.6,-,N/A,,Clear,330,2014-02-24 04:53:00